VLG3825 LPPR-GCFV

Flight info

Callsign VLG3825
Flight time 2h 24m
Altitude 35000
Route MANIK DCT ESP DCT NAKOS DCT TAKAV DCT VEDOD UN857 TERTO
Aircraft A320/M-SDE3FGHIRWY/LB1

Departure

Time 2026-05-05 18:46
Airport Francisco de Sá Carneiro Airport (LPPR)

Arrival

Time 2026-05-05 21:10
Airport Fuerteventura Airport (GCFV)
Time Latitude Longitude Altitude Speed Heading
2026-05-05 18:27 41.23374 -8.67148 237 ft 0 kts 79°
2026-05-05 18:37 41.23371 -8.67167 237 ft 2 kts 79°
2026-05-05 18:37 41.23368 -8.67189 237 ft 2 kts 79°
2026-05-05 18:37 41.23365 -8.67212 237 ft 2 kts 79°
2026-05-05 18:38 41.23361 -8.67234 237 ft 2 kts 79°
2026-05-05 18:38 41.23359 -8.67256 237 ft 3 kts 103°
2026-05-05 18:38 41.23364 -8.67279 237 ft 2 kts 106°
2026-05-05 18:38 41.23368 -8.67299 237 ft 2 kts 109°
2026-05-05 18:39 41.23374 -8.67321 237 ft 3 kts 113°
2026-05-05 18:39 41.23382 -8.67341 237 ft 3 kts 128°
2026-05-05 18:39 41.23394 -8.67358 237 ft 3 kts 141°
2026-05-05 18:39 41.23402 -8.67366 237 ft 0 kts 163°
2026-05-05 18:42 41.23398 -8.67365 237 ft 3 kts 167°
2026-05-05 18:43 41.23347 -8.67381 237 ft 8 kts 221°
2026-05-05 18:43 41.23328 -8.67453 237 ft 9 kts 258°
2026-05-05 18:43 41.23318 -8.67522 237 ft 7 kts 259°
2026-05-05 18:43 41.23311 -8.67575 237 ft 5 kts 259°
2026-05-05 18:44 41.23307 -8.67605 237 ft 0 kts 258°
2026-05-05 18:45 41.23305 -8.67615 237 ft 7 kts 258°
2026-05-05 18:45 41.23322 -8.67728 239 ft 15 kts 324°
2026-05-05 18:45 41.23369 -8.67749 238 ft 1 kts 348°
2026-05-05 18:45 41.23430 -8.67765 239 ft 33 kts 349°
2026-05-05 18:46 41.23917 -8.67892 221 ft 108 kts 348°
2026-05-05 18:46 41.24882 -8.68153 303 ft 166 kts 348°
2026-05-05 18:46 41.26054 -8.68469 1027 ft 173 kts 347°
2026-05-05 18:46 41.27217 -8.68785 1865 ft 167 kts 347°
2026-05-05 18:47 41.28339 -8.69072 2598 ft 164 kts 348°
2026-05-05 18:47 41.29505 -8.69371 3015 ft 178 kts 348°
2026-05-05 18:47 41.30787 -8.69702 3390 ft 197 kts 348°
2026-05-05 18:47 41.32189 -8.70067 3865 ft 214 kts 348°
2026-05-05 18:48 41.33707 -8.70463 4381 ft 231 kts 348°
2026-05-05 18:48 41.35343 -8.70891 4947 ft 247 kts 348°
2026-05-05 18:48 41.37050 -8.71340 5688 ft 253 kts 348°
2026-05-05 18:48 41.38786 -8.71799 6519 ft 256 kts 346°
2026-05-05 18:49 41.40408 -8.72731 7312 ft 257 kts 323°
2026-05-05 18:49 41.41596 -8.74512 8094 ft 262 kts 299°
2026-05-05 18:49 41.42072 -8.76871 8858 ft 271 kts 273°
2026-05-05 18:49 41.41662 -8.79352 9618 ft 282 kts 246°
2026-05-05 18:50 41.40378 -8.81357 10330 ft 293 kts 216°
2026-05-05 18:50 41.38449 -8.82322 10978 ft 305 kts 190°
2026-05-05 18:50 41.36278 -8.82622 11354 ft 322 kts 187°
2026-05-05 18:50 41.33981 -8.82865 11698 ft 339 kts 186°
2026-05-05 18:51 41.31568 -8.83098 12017 ft 356 kts 186°
2026-05-05 18:51 41.29038 -8.83345 12306 ft 373 kts 186°
2026-05-05 18:51 41.26408 -8.83609 12719 ft 383 kts 186°
2026-05-05 18:51 41.23730 -8.83886 13326 ft 388 kts 187°
2026-05-05 18:52 41.21032 -8.84175 13953 ft 392 kts 187°
2026-05-05 18:52 41.18296 -8.84470 14511 ft 396 kts 187°
2026-05-05 18:52 41.15544 -8.84770 15070 ft 399 kts 188°
2026-05-05 18:52 41.12761 -8.85076 15641 ft 402 kts 188°
2026-05-05 18:53 41.09965 -8.85383 16199 ft 405 kts 188°
2026-05-05 18:53 41.07140 -8.85692 16762 ft 409 kts 188°
2026-05-05 18:53 41.04295 -8.86000 17326 ft 412 kts 188°
2026-05-05 18:53 41.01431 -8.86308 17893 ft 415 kts 188°
2026-05-05 18:54 40.98545 -8.86617 18442 ft 418 kts 189°
2026-05-05 18:54 40.95635 -8.86930 18933 ft 421 kts 189°
2026-05-05 18:54 40.92711 -8.87247 19432 ft 423 kts 189°
2026-05-05 18:54 40.89767 -8.87569 19925 ft 425 kts 189°
2026-05-05 18:55 40.86812 -8.87890 20411 ft 427 kts 189°
2026-05-05 18:55 40.83847 -8.88210 20874 ft 429 kts 189°
2026-05-05 18:55 40.80865 -8.88531 21323 ft 431 kts 189°
2026-05-05 18:55 40.77867 -8.88848 21769 ft 433 kts 189°
2026-05-05 18:56 40.74855 -8.89166 22203 ft 435 kts 189°
2026-05-05 18:56 40.71832 -8.89489 22631 ft 437 kts 189°
2026-05-05 18:56 40.68793 -8.89817 23046 ft 439 kts 189°
2026-05-05 18:56 40.65745 -8.90148 23443 ft 441 kts 189°
2026-05-05 18:57 40.62680 -8.90478 23790 ft 443 kts 189°
2026-05-05 18:57 40.59651 -8.90802 24110 ft 444 kts 189°
2026-05-05 18:57 40.56519 -8.91135 24442 ft 446 kts 189°
2026-05-05 18:57 40.53428 -8.91467 24774 ft 447 kts 189°
2026-05-05 18:58 40.50360 -8.91797 25085 ft 448 kts 189°
2026-05-05 18:58 40.47252 -8.92131 25398 ft 449 kts 189°
2026-05-05 18:58 40.44125 -8.92464 25702 ft 451 kts 189°
2026-05-05 18:58 40.40997 -8.92796 25999 ft 452 kts 189°
2026-05-05 18:59 40.37861 -8.93129 26291 ft 453 kts 189°
2026-05-05 18:59 40.34714 -8.93463 26573 ft 454 kts 189°
2026-05-05 18:59 40.31558 -8.93797 26842 ft 456 kts 189°
2026-05-05 18:59 40.28390 -8.94132 27110 ft 457 kts 189°
2026-05-05 19:00 40.25216 -8.94465 27369 ft 458 kts 189°
2026-05-05 19:00 40.22044 -8.94801 27618 ft 459 kts 189°
2026-05-05 19:00 40.18854 -8.95140 27860 ft 460 kts 189°
2026-05-05 19:00 40.15666 -8.95482 28094 ft 461 kts 189°
2026-05-05 19:01 40.12464 -8.95824 28310 ft 462 kts 189°
2026-05-05 19:01 40.09260 -8.96164 28548 ft 462 kts 189°
2026-05-05 19:01 40.06057 -8.96500 28846 ft 461 kts 189°
2026-05-05 19:01 40.02864 -8.96830 29152 ft 460 kts 189°
2026-05-05 19:02 39.99677 -8.97160 29471 ft 458 kts 189°
2026-05-05 19:02 39.96502 -8.97490 29783 ft 457 kts 189°
2026-05-05 19:02 39.93332 -8.97819 30083 ft 456 kts 189°
2026-05-05 19:02 39.90173 -8.98150 30352 ft 455 kts 189°
2026-05-05 19:03 39.87013 -8.98483 30606 ft 454 kts 189°
2026-05-05 19:03 39.83870 -8.98813 30862 ft 453 kts 189°
2026-05-05 19:03 39.80729 -8.99145 31121 ft 452 kts 189°
2026-05-05 19:03 39.77593 -8.99475 31383 ft 451 kts 189°
2026-05-05 19:04 39.74474 -8.99800 31646 ft 450 kts 189°
2026-05-05 19:04 39.71353 -9.00124 31915 ft 449 kts 189°
2026-05-05 19:04 39.68244 -9.00447 32171 ft 447 kts 189°
2026-05-05 19:04 39.65149 -9.00765 32425 ft 446 kts 190°
2026-05-05 19:05 39.62100 -9.01081 32673 ft 445 kts 190°
2026-05-05 19:05 39.59014 -9.01401 32931 ft 444 kts 190°
2026-05-05 19:05 39.55938 -9.01721 33176 ft 443 kts 190°
2026-05-05 19:05 39.52873 -9.02039 33425 ft 442 kts 190°
2026-05-05 19:06 39.49816 -9.02356 33667 ft 441 kts 190°
2026-05-05 19:06 39.46753 -9.02671 33918 ft 440 kts 190°
2026-05-05 19:06 39.43706 -9.02984 34161 ft 439 kts 190°
2026-05-05 19:06 39.40665 -9.03298 34368 ft 438 kts 191°
2026-05-05 19:07 39.37630 -9.03614 34560 ft 438 kts 191°
2026-05-05 19:07 39.34589 -9.03928 34743 ft 438 kts 191°
2026-05-05 19:07 39.31559 -9.04240 34923 ft 438 kts 191°
2026-05-05 19:07 39.28518 -9.04553 35053 ft 439 kts 191°
2026-05-05 19:08 39.22411 -9.05184 35083 ft 441 kts 191°
2026-05-05 19:08 39.16288 -9.05805 35078 ft 440 kts 191°
2026-05-05 19:09 39.10180 -9.06430 35083 ft 440 kts 191°
2026-05-05 19:09 39.04133 -9.07050 35074 ft 439 kts 191°
2026-05-05 19:10 38.98031 -9.07680 35089 ft 439 kts 191°
2026-05-05 19:10 38.91980 -9.08297 35083 ft 439 kts 192°
2026-05-05 19:11 38.85893 -9.08914 35096 ft 438 kts 191°
2026-05-05 19:11 38.79812 -9.09528 35089 ft 438 kts 192°
2026-05-05 19:12 38.73731 -9.10149 35085 ft 438 kts 192°
2026-05-05 19:12 38.67655 -9.10772 35083 ft 438 kts 192°
2026-05-05 19:13 38.61576 -9.11387 35083 ft 438 kts 191°
2026-05-05 19:13 38.55504 -9.11991 35082 ft 438 kts 191°
2026-05-05 19:14 38.49425 -9.12600 35079 ft 438 kts 191°
2026-05-05 19:14 38.43343 -9.13220 35080 ft 438 kts 191°
2026-05-05 19:15 38.37258 -9.13833 35079 ft 438 kts 191°
2026-05-05 19:15 38.31169 -9.14446 35081 ft 438 kts 191°
2026-05-05 19:16 38.25119 -9.15050 35079 ft 439 kts 191°
2026-05-05 19:16 38.19029 -9.15656 35083 ft 439 kts 191°
2026-05-05 19:17 38.12933 -9.16263 35084 ft 439 kts 191°
2026-05-05 19:17 38.06833 -9.16869 35086 ft 439 kts 191°
2026-05-05 19:18 38.00739 -9.17478 35092 ft 440 kts 191°
2026-05-05 19:18 37.94640 -9.18079 35091 ft 440 kts 191°
2026-05-05 19:19 37.88528 -9.18677 35098 ft 440 kts 191°
2026-05-05 19:19 37.82427 -9.19282 35098 ft 439 kts 191°
2026-05-05 19:20 37.76342 -9.19890 35096 ft 439 kts 191°
2026-05-05 19:20 37.70285 -9.20487 35092 ft 439 kts 190°
2026-05-05 19:21 37.64185 -9.21082 35092 ft 439 kts 190°
2026-05-05 19:21 37.58091 -9.21683 35091 ft 440 kts 190°
2026-05-05 19:22 37.51991 -9.22285 35092 ft 439 kts 190°
2026-05-05 19:22 37.45896 -9.22882 35090 ft 440 kts 190°
2026-05-05 19:23 37.39792 -9.23480 35097 ft 440 kts 190°
2026-05-05 19:23 37.33684 -9.24076 35100 ft 440 kts 189°
2026-05-05 19:24 37.27573 -9.24669 35092 ft 440 kts 189°
2026-05-05 19:24 37.21460 -9.25260 35088 ft 440 kts 189°
2026-05-05 19:25 37.15392 -9.25847 35091 ft 440 kts 189°
2026-05-05 19:25 37.09286 -9.26440 35091 ft 440 kts 189°
2026-05-05 19:26 37.03173 -9.27034 35089 ft 440 kts 189°
2026-05-05 19:26 36.97066 -9.27625 35093 ft 440 kts 189°
2026-05-05 19:27 36.91932 -9.28119 35094 ft 440 kts 189°
2026-05-05 19:27 36.85823 -9.28706 35094 ft 440 kts 189°
2026-05-05 19:28 36.79752 -9.29286 35094 ft 441 kts 189°
2026-05-05 19:28 36.73638 -9.29875 35098 ft 440 kts 189°
2026-05-05 19:29 36.67529 -9.30474 35092 ft 440 kts 189°
2026-05-05 19:29 36.61419 -9.31063 35097 ft 440 kts 189°
2026-05-05 19:30 36.55304 -9.31640 35097 ft 440 kts 189°
2026-05-05 19:30 36.49193 -9.32218 35098 ft 440 kts 189°
2026-05-05 19:31 36.43084 -9.32806 35096 ft 440 kts 189°
2026-05-05 19:31 36.36981 -9.33393 35092 ft 440 kts 189°
2026-05-05 19:32 36.30868 -9.33971 35099 ft 440 kts 189°
2026-05-05 19:32 36.24756 -9.34548 35105 ft 440 kts 189°
2026-05-05 19:33 36.18644 -9.35121 35092 ft 441 kts 189°
2026-05-05 19:33 36.12530 -9.35698 35102 ft 441 kts 189°
2026-05-05 19:34 36.06419 -9.36283 35100 ft 440 kts 189°
2026-05-05 19:35 35.97340 -9.37413 35099 ft 435 kts 198°
2026-05-05 19:35 35.91764 -9.40070 35096 ft 428 kts 209°
2026-05-05 19:36 35.86384 -9.43256 35102 ft 429 kts 209°
2026-05-05 19:36 35.80997 -9.46425 35102 ft 429 kts 209°
2026-05-05 19:37 35.75602 -9.49591 35103 ft 429 kts 209°
2026-05-05 19:37 35.70208 -9.52755 35103 ft 429 kts 209°
2026-05-05 19:38 35.64808 -9.55915 35105 ft 429 kts 209°
2026-05-05 19:38 35.59414 -9.59071 35099 ft 430 kts 209°
2026-05-05 19:39 35.54044 -9.62202 35103 ft 430 kts 209°
2026-05-05 19:39 35.48665 -9.65336 35103 ft 430 kts 209°
2026-05-05 19:40 35.43245 -9.68478 35109 ft 430 kts 208°
2026-05-05 19:40 35.37823 -9.71621 35107 ft 431 kts 208°
2026-05-05 19:41 35.32411 -9.74768 35107 ft 431 kts 208°
2026-05-05 19:41 35.26988 -9.77912 35110 ft 431 kts 208°
2026-05-05 19:42 35.21552 -9.81050 35107 ft 432 kts 208°
2026-05-05 19:42 35.16112 -9.84196 35107 ft 433 kts 208°
2026-05-05 19:43 35.10701 -9.87319 35108 ft 433 kts 208°
2026-05-05 19:43 35.05244 -9.90457 35109 ft 433 kts 208°
2026-05-05 19:44 35.00766 -9.93030 35115 ft 433 kts 208°
2026-05-05 19:46 34.95913 -9.97317 34134 ft 426 kts 209°
2026-05-05 19:47 34.93158 -9.98709 34234 ft 431 kts 202°
2026-05-05 19:47 34.90293 -9.99840 34351 ft 435 kts 200°
2026-05-05 19:47 34.87409 -10.00972 34470 ft 436 kts 202°
2026-05-05 19:47 34.84557 -10.02247 34592 ft 436 kts 205°
2026-05-05 19:48 34.81765 -10.03681 34751 ft 435 kts 207°
2026-05-05 19:48 34.79020 -10.05234 34913 ft 434 kts 209°
2026-05-05 19:48 34.76309 -10.06851 35063 ft 434 kts 210°
2026-05-05 19:49 34.70896 -10.10110 35100 ft 434 kts 209°
2026-05-05 19:49 34.65442 -10.13279 35096 ft 435 kts 208°
2026-05-05 19:50 34.59945 -10.16377 35102 ft 435 kts 208°
2026-05-05 19:50 34.54446 -10.19477 35099 ft 436 kts 208°
2026-05-05 19:51 34.48946 -10.22582 35099 ft 436 kts 208°
2026-05-05 19:51 34.43449 -10.25703 35102 ft 436 kts 208°
2026-05-05 19:52 34.37943 -10.28816 35105 ft 437 kts 208°
2026-05-05 19:52 34.33367 -10.31400 35105 ft 437 kts 208°
2026-05-05 19:53 34.27863 -10.34510 35104 ft 437 kts 208°
2026-05-05 19:53 34.22354 -10.37609 35102 ft 437 kts 208°
2026-05-05 19:54 34.16844 -10.40707 35109 ft 437 kts 208°
2026-05-05 19:54 34.11329 -10.43802 35104 ft 437 kts 208°
2026-05-05 19:55 34.05818 -10.46890 35104 ft 436 kts 208°
2026-05-05 19:55 34.00313 -10.49973 35106 ft 436 kts 208°
2026-05-05 19:56 33.94811 -10.53040 35109 ft 436 kts 208°
2026-05-05 19:56 33.89308 -10.56115 35105 ft 436 kts 208°
2026-05-05 19:57 33.83813 -10.59190 35105 ft 435 kts 208°
2026-05-05 19:57 33.78313 -10.62245 35104 ft 435 kts 208°
2026-05-05 19:58 33.72819 -10.65293 35099 ft 435 kts 208°
2026-05-05 19:58 33.67332 -10.68347 35097 ft 434 kts 208°
2026-05-05 19:59 33.61847 -10.71393 35102 ft 434 kts 208°
2026-05-05 19:59 33.56364 -10.74416 35100 ft 434 kts 208°
2026-05-05 20:00 33.50884 -10.77439 35097 ft 433 kts 208°
2026-05-05 20:00 33.45410 -10.80465 35098 ft 432 kts 208°
2026-05-05 20:01 33.40951 -10.82925 35098 ft 432 kts 208°
2026-05-05 20:01 33.35986 -10.85710 35039 ft 427 kts 208°
2026-05-05 20:02 33.30541 -10.88678 35058 ft 431 kts 208°
2026-05-05 20:02 33.25088 -10.91642 35084 ft 429 kts 208°
2026-05-05 20:03 33.19666 -10.94611 35096 ft 429 kts 209°
2026-05-05 20:03 33.14245 -10.97595 35098 ft 429 kts 209°
2026-05-05 20:04 33.08829 -11.00560 35097 ft 428 kts 209°
2026-05-05 20:04 33.03407 -11.03517 35092 ft 429 kts 209°
2026-05-05 20:05 32.97984 -11.06467 35087 ft 428 kts 209°
2026-05-05 20:05 32.92560 -11.09415 35089 ft 428 kts 209°
2026-05-05 20:06 32.87149 -11.12365 35090 ft 428 kts 210°
2026-05-05 20:06 32.81731 -11.15314 35089 ft 428 kts 209°
2026-05-05 20:07 32.76310 -11.18257 35085 ft 428 kts 209°
2026-05-05 20:07 32.70887 -11.21188 35089 ft 428 kts 209°
2026-05-05 20:08 32.65504 -11.24100 35090 ft 428 kts 210°
2026-05-05 20:08 32.60048 -11.27038 35089 ft 427 kts 209°
2026-05-05 20:09 32.54674 -11.29932 35088 ft 427 kts 210°
2026-05-05 20:09 32.49244 -11.32861 35094 ft 426 kts 210°
2026-05-05 20:10 32.43858 -11.35764 35093 ft 425 kts 210°
2026-05-05 20:10 32.38482 -11.38658 35092 ft 424 kts 210°
2026-05-05 20:11 32.33112 -11.41526 35091 ft 423 kts 210°
2026-05-05 20:11 32.27799 -11.44377 35083 ft 422 kts 210°
2026-05-05 20:12 32.22466 -11.47243 35085 ft 421 kts 210°
2026-05-05 20:12 32.17106 -11.50102 35083 ft 419 kts 210°
2026-05-05 20:13 32.11802 -11.52932 35092 ft 418 kts 210°
2026-05-05 20:13 32.06510 -11.55751 35092 ft 417 kts 210°
2026-05-05 20:14 32.01235 -11.58562 35087 ft 415 kts 210°
2026-05-05 20:14 31.95973 -11.61362 35086 ft 414 kts 210°
2026-05-05 20:15 31.90730 -11.64146 35084 ft 413 kts 210°
2026-05-05 20:15 31.85505 -11.66914 35084 ft 411 kts 211°
2026-05-05 20:16 31.80306 -11.69673 35088 ft 409 kts 211°
2026-05-05 20:16 31.75124 -11.72406 35083 ft 407 kts 211°
2026-05-05 20:17 31.70004 -11.75115 35086 ft 405 kts 211°
2026-05-05 20:17 31.64874 -11.77834 35088 ft 403 kts 211°
2026-05-05 20:18 31.59770 -11.80528 35084 ft 402 kts 211°
2026-05-05 20:18 31.54679 -11.83202 35083 ft 400 kts 211°
2026-05-05 20:19 31.49611 -11.85861 35081 ft 398 kts 212°
2026-05-05 20:19 31.44564 -11.88513 35084 ft 396 kts 212°
2026-05-05 20:20 31.39541 -11.91150 35082 ft 395 kts 212°
2026-05-05 20:20 31.34539 -11.93772 35081 ft 393 kts 212°
2026-05-05 20:21 31.29562 -11.96378 35078 ft 391 kts 212°
2026-05-05 20:21 31.24596 -11.98975 35073 ft 391 kts 212°
2026-05-05 20:22 31.19640 -12.01565 35073 ft 390 kts 212°
2026-05-05 20:22 31.14694 -12.04136 35072 ft 389 kts 212°
2026-05-05 20:23 31.09793 -12.06688 35072 ft 388 kts 212°
2026-05-05 20:23 31.04870 -12.09260 35071 ft 387 kts 212°
2026-05-05 20:24 30.99958 -12.11813 35068 ft 386 kts 212°
2026-05-05 20:24 30.95055 -12.14358 35064 ft 386 kts 212°
2026-05-05 20:25 30.90153 -12.16904 35061 ft 385 kts 212°
2026-05-05 20:25 30.85258 -12.19443 35060 ft 385 kts 212°
2026-05-05 20:26 30.80365 -12.21968 35060 ft 385 kts 212°
2026-05-05 20:26 30.75480 -12.24496 35059 ft 384 kts 212°
2026-05-05 20:27 30.70600 -12.27024 35056 ft 384 kts 213°
2026-05-05 20:27 30.65724 -12.29545 35055 ft 383 kts 212°
2026-05-05 20:28 30.60878 -12.32039 35059 ft 383 kts 212°
2026-05-05 20:28 30.55997 -12.34538 35061 ft 383 kts 212°
2026-05-05 20:29 30.51113 -12.37099 35055 ft 379 kts 217°
2026-05-05 20:29 30.46858 -12.40529 35057 ft 372 kts 223°
2026-05-05 20:30 30.42710 -12.44103 35054 ft 372 kts 223°
2026-05-05 20:30 30.38556 -12.47661 35054 ft 371 kts 223°
2026-05-05 20:31 30.34400 -12.51217 35071 ft 371 kts 223°
2026-05-05 20:31 30.30249 -12.54774 35064 ft 371 kts 223°
2026-05-05 20:32 30.26103 -12.58333 35056 ft 371 kts 223°
2026-05-05 20:32 30.21978 -12.61849 35054 ft 371 kts 223°
2026-05-05 20:33 30.17826 -12.65391 35056 ft 371 kts 223°
2026-05-05 20:33 30.13679 -12.68931 35054 ft 371 kts 223°
2026-05-05 20:34 30.09445 -12.72347 35054 ft 376 kts 217°
2026-05-05 20:34 30.04865 -12.75281 35053 ft 376 kts 217°
2026-05-05 20:35 30.00282 -12.78205 35059 ft 376 kts 217°
2026-05-05 20:35 29.95704 -12.81124 35053 ft 376 kts 217°
2026-05-05 20:36 29.91126 -12.84044 35054 ft 376 kts 217°
2026-05-05 20:36 29.86547 -12.86965 35056 ft 376 kts 216°
2026-05-05 20:37 29.81974 -12.89882 35050 ft 376 kts 217°
2026-05-05 20:37 29.77403 -12.92795 35048 ft 376 kts 216°
2026-05-05 20:38 29.73598 -12.95214 35053 ft 376 kts 216°
2026-05-05 20:38 29.69026 -12.98122 35051 ft 375 kts 216°
2026-05-05 20:39 29.64449 -13.01020 35048 ft 376 kts 216°
2026-05-05 20:39 29.59862 -13.03917 35047 ft 376 kts 216°
2026-05-05 20:40 29.55284 -13.06819 35048 ft 376 kts 216°
2026-05-05 20:40 29.50701 -13.09725 35048 ft 376 kts 216°
2026-05-05 20:41 29.46118 -13.12624 35044 ft 376 kts 216°
2026-05-05 20:41 29.41531 -13.15519 35045 ft 377 kts 216°
2026-05-05 20:42 29.36940 -13.18415 35050 ft 377 kts 216°
2026-05-05 20:42 29.32281 -13.21160 35063 ft 377 kts 213°
2026-05-05 20:43 29.27512 -13.23718 35059 ft 378 kts 212°
2026-05-05 20:43 29.22748 -13.26262 34873 ft 377 kts 213°
2026-05-05 20:43 29.20356 -13.27558 33669 ft 382 kts 212°
2026-05-05 20:44 29.17942 -13.28882 31900 ft 387 kts 212°
2026-05-05 20:44 29.15504 -13.30227 30212 ft 391 kts 212°
2026-05-05 20:44 29.13041 -13.31587 28311 ft 394 kts 212°
2026-05-05 20:44 29.10558 -13.32952 26510 ft 396 kts 212°
2026-05-05 20:45 29.05594 -13.35661 23304 ft 395 kts 211°
2026-05-05 20:45 29.03155 -13.36982 22445 ft 377 kts 211°
2026-05-05 20:45 29.00827 -13.38236 21996 ft 367 kts 212°
2026-05-05 20:46 28.98532 -13.39481 21337 ft 363 kts 212°
2026-05-05 20:46 28.96283 -13.40710 20694 ft 361 kts 212°
2026-05-05 20:46 28.94026 -13.41951 20054 ft 360 kts 212°
2026-05-05 20:46 28.91778 -13.43186 19447 ft 358 kts 212°
2026-05-05 20:47 28.89533 -13.44417 18846 ft 357 kts 212°
2026-05-05 20:47 28.87292 -13.45641 18272 ft 356 kts 211°
2026-05-05 20:47 28.85063 -13.46854 17659 ft 354 kts 211°
2026-05-05 20:47 28.82850 -13.48055 17134 ft 350 kts 211°
2026-05-05 20:48 28.80667 -13.49242 16621 ft 346 kts 211°
2026-05-05 20:48 28.78733 -13.50293 16179 ft 342 kts 211°
2026-05-05 20:48 28.76587 -13.51460 15677 ft 340 kts 211°
2026-05-05 20:48 28.74456 -13.52620 15167 ft 338 kts 211°
2026-05-05 20:49 28.72336 -13.53770 14649 ft 337 kts 211°
2026-05-05 20:49 28.70221 -13.54914 14124 ft 335 kts 211°
2026-05-05 20:49 28.68118 -13.56050 13547 ft 334 kts 211°
2026-05-05 20:49 28.66019 -13.57188 12975 ft 333 kts 210°
2026-05-05 20:50 28.63925 -13.58324 12393 ft 333 kts 210°
2026-05-05 20:50 28.61834 -13.59456 11803 ft 332 kts 210°
2026-05-05 20:50 28.59746 -13.60585 11193 ft 332 kts 209°
2026-05-05 20:50 28.57668 -13.61709 10780 ft 326 kts 208°
2026-05-05 20:51 28.55662 -13.62793 10657 ft 311 kts 209°
2026-05-05 20:51 28.53750 -13.63825 10538 ft 298 kts 209°
2026-05-05 20:51 28.51934 -13.64779 10417 ft 286 kts 207°
2026-05-05 20:51 28.50110 -13.65679 10268 ft 278 kts 207°
2026-05-05 20:52 28.48347 -13.66530 10211 ft 279 kts 206°
2026-05-05 20:52 28.46525 -13.67304 10123 ft 282 kts 197°
2026-05-05 20:52 28.44563 -13.67558 9976 ft 287 kts 182°
2026-05-05 20:52 28.42540 -13.67314 9345 ft 296 kts 175°
2026-05-05 20:53 28.40519 -13.66986 9002 ft 291 kts 175°
2026-05-05 20:53 28.38550 -13.66662 8725 ft 276 kts 175°
2026-05-05 20:53 28.36693 -13.66341 8300 ft 266 kts 172°
2026-05-05 20:53 28.34960 -13.65691 7978 ft 257 kts 158°
2026-05-05 20:54 28.33348 -13.64704 7918 ft 266 kts 154°
2026-05-05 20:54 28.31721 -13.63689 7857 ft 266 kts 154°
2026-05-05 20:54 28.30101 -13.62682 7737 ft 265 kts 154°
2026-05-05 20:54 28.28481 -13.61679 7612 ft 265 kts 155°
2026-05-05 20:55 28.26863 -13.60678 7496 ft 265 kts 154°
2026-05-05 20:55 28.25242 -13.59697 7375 ft 263 kts 160°
2026-05-05 20:55 28.23524 -13.59163 7252 ft 249 kts 178°
2026-05-05 20:55 28.21830 -13.59213 7134 ft 245 kts 191°
2026-05-05 20:56 28.20144 -13.59467 7014 ft 244 kts 189°
2026-05-05 20:56 28.18456 -13.59710 6889 ft 245 kts 189°
2026-05-05 20:56 28.16769 -13.59951 6777 ft 244 kts 189°
2026-05-05 20:56 28.15083 -13.60191 6656 ft 244 kts 189°
2026-05-05 20:57 28.13396 -13.60431 6536 ft 245 kts 189°
2026-05-05 20:57 28.11737 -13.60707 6404 ft 244 kts 196°
2026-05-05 20:57 28.10182 -13.61442 6293 ft 242 kts 214°
2026-05-05 20:57 28.08879 -13.62635 6174 ft 242 kts 223°
2026-05-05 20:58 28.07628 -13.63911 6040 ft 242 kts 223°
2026-05-05 20:58 28.06371 -13.65178 6028 ft 242 kts 223°
2026-05-05 20:58 28.05108 -13.66445 6032 ft 242 kts 223°
2026-05-05 20:58 28.03851 -13.67710 6031 ft 242 kts 223°
2026-05-05 20:59 28.02590 -13.68980 6027 ft 243 kts 223°
2026-05-05 20:59 28.01372 -13.70295 6015 ft 241 kts 232°
2026-05-05 20:59 28.00521 -13.71917 5984 ft 240 kts 250°
2026-05-05 20:59 28.00082 -13.73735 5857 ft 240 kts 257°
2026-05-05 21:00 27.99688 -13.75564 5738 ft 240 kts 257°
2026-05-05 21:00 27.99286 -13.77399 5614 ft 241 kts 257°
2026-05-05 21:00 27.98885 -13.79240 5490 ft 241 kts 257°
2026-05-05 21:00 27.98489 -13.81079 5351 ft 241 kts 258°
2026-05-05 21:01 27.98459 -13.82945 5240 ft 238 kts 286°
2026-05-05 21:01 27.99236 -13.84568 5124 ft 236 kts 316°
2026-05-05 21:01 28.00611 -13.85542 5002 ft 235 kts 345°
2026-05-05 21:01 28.02226 -13.85744 4880 ft 234 kts 358°
2026-05-05 21:02 28.03851 -13.85811 4760 ft 233 kts 358°
2026-05-05 21:02 28.05471 -13.85886 4637 ft 233 kts 358°
2026-05-05 21:02 28.07082 -13.85960 4515 ft 230 kts 358°
2026-05-05 21:02 28.08684 -13.86034 4388 ft 229 kts 358°
2026-05-05 21:03 28.10277 -13.86109 4265 ft 228 kts 358°
2026-05-05 21:03 28.11857 -13.86184 4141 ft 227 kts 359°
2026-05-05 21:03 28.13434 -13.86255 4017 ft 225 kts 359°
2026-05-05 21:03 28.14997 -13.86323 3892 ft 223 kts 359°
2026-05-05 21:04 28.16542 -13.86394 3769 ft 223 kts 359°
2026-05-05 21:04 28.18088 -13.86464 3649 ft 221 kts 359°
2026-05-05 21:04 28.19604 -13.86533 3524 ft 221 kts 359°
2026-05-05 21:04 28.21125 -13.86601 3404 ft 218 kts 359°
2026-05-05 21:05 28.22647 -13.86669 3282 ft 218 kts 359°
2026-05-05 21:05 28.24177 -13.86744 3157 ft 227 kts 357°
2026-05-05 21:05 28.25737 -13.86924 3025 ft 220 kts 358°
2026-05-05 21:05 28.27230 -13.86962 2908 ft 209 kts
2026-05-05 21:06 28.28646 -13.86926 2776 ft 198 kts
2026-05-05 21:06 28.29976 -13.86883 2717 ft 184 kts
2026-05-05 21:06 28.31232 -13.86841 2530 ft 180 kts
2026-05-05 21:06 28.32488 -13.86799 2317 ft 179 kts
2026-05-05 21:07 28.33698 -13.86759 2089 ft 166 kts
2026-05-05 21:07 28.34798 -13.86724 1898 ft 149 kts
2026-05-05 21:07 28.35769 -13.86693 1709 ft 131 kts
2026-05-05 21:07 28.36664 -13.86663 1528 ft 128 kts
2026-05-05 21:08 28.37554 -13.86634 1350 ft 128 kts
2026-05-05 21:08 28.38442 -13.86608 1197 ft 127 kts
2026-05-05 21:08 28.39321 -13.86577 962 ft 127 kts
2026-05-05 21:08 28.40200 -13.86552 850 ft 126 kts
2026-05-05 21:09 28.41090 -13.86530 634 ft 130 kts
2026-05-05 21:09 28.41988 -13.86488 487 ft 128 kts
2026-05-05 21:09 28.42874 -13.86467 308 ft 125 kts
2026-05-05 21:09 28.43747 -13.86430 140 ft 124 kts
2026-05-05 21:10 28.44601 -13.86399 55 ft 118 kts
2026-05-05 21:10 28.45275 -13.86373 65 ft 70 kts
2026-05-05 21:10 28.45555 -13.86366 80 ft 14 kts
2026-05-05 21:10 28.45589 -13.86365 84 ft 10 kts
2026-05-05 21:11 28.45652 -13.86389 84 ft 9 kts 292°
2026-05-05 21:11 28.45661 -13.86450 83 ft 7 kts 271°
2026-05-05 21:11 28.45660 -13.86474 84 ft 0 kts 275°
2026-05-05 21:12 28.45657 -13.86538 85 ft 16 kts 239°
2026-05-05 21:12 28.45563 -13.86560 85 ft 16 kts 183°
2026-05-05 21:12 28.45450 -13.86567 81 ft 17 kts 183°
2026-05-05 21:13 28.45370 -13.86628 76 ft 14 kts 266°
2026-05-05 21:13 28.45354 -13.86726 74 ft 12 kts 222°
2026-05-05 21:13 28.45316 -13.86794 76 ft 10 kts 264°
2026-05-05 21:13 28.45314 -13.86821 74 ft 0 kts 270°
2026-05-05 21:14 28.45314 -13.86824 73 ft 0 kts 270°